Regional Weather Roundup
Issued by NWS New Orleans/Baton Rouge, LA

Home | Current Version | Previous Version | Text Only | Print | Product List | Glossary On
Versions: 1 2 3 4 5 6 7 8 9 10 11 12 13 14 15 16 17 18 19 20 21 22 23 24 25 26 27 28 29 30 31 32 33 34 35 36 37 38 39 40 41 42 43 44 45 46 47 48 49 50
417
ASUS44 KLIX 300310
RWRLIX
NEW ORLEANS REGIONAL WEATHER ROUNDUP
NATIONAL WEATHER SERVICE NEW ORLEANS LA
1000 PM CDT WED OCT 29 2014

NOTE: "FAIR" INDICATES FEW OR NO CLOUDS BELOW 12,000 FEET WITH NO
      SIGNIFICANT WEATHER AND/OR OBSTRUCTIONS TO VISIBILITY.
      SKY/WX - SKY CONDITION AND SIGNIFICANT WEATHER.
      TMP - AIR TEMPERATURE.     DP    - DEWPOINT TEMPERATURE.
      RH  - RELATIVE HUMIDITY.   PRES  - PRESSURE.
      HI  - HEAT INDEX.          WCI   - WIND CHILL INDEX.

*  THESE STATIONS ARE NOT NWS OR FAA STATIONS AND ARE NOT UNDER
   NWS QUALITY CONTROL.

LAZ038-040-048-061>063-065>067-069-300400-
SOUTHEAST LOUISIANA

CITY           SKY/WX    TMP DP  RH WIND       PRES   REMARKS
N.O. AUDUBON     N/A     72  67  83 MISG        N/A
N.O. INTL ARPT CLOUDY    73  62  68 NE16      30.07R
N.O. LAKEFRONT MOCLDY    73  64  73 N18       30.07R
N.O. DOWNTOWN* CLOUDY    73  61  64 N8        30.07R
SLIDELL        PTCLDY    68  63  84 N6        30.06S
BATON ROUGE    CLOUDY    65  58  78 VRB3      30.09S
BOOTHVILLE     CLOUDY    74  68  81 CALM      30.04R
BELLE CHASSE   CLOUDY    74  63  68 N9        30.05R
BOGALUSA*        N/A     65  54  67 N7        30.10S
NEW ROADS*       N/A     61  56  82 N6        30.11R
GONZALES*        N/A     66  66 100 N3        30.08S
HAMMOND*       NOT AVBL
HOUMA*         MOCLDY    71  67  89 N10       30.07R
PORT FOURCHON* MOCLDY    75  68  78 NE10G18   30.08R

$$

MSZ070-080>082-300400-
SOUTHERN MISSISSIPPI

CITY           SKY/WX    TMP DP  RH WIND       PRES   REMARKS
MCCOMB         CLEAR     62  46  55 N7        30.11R
GULFPORT       CLOUDY    71  65  81 N9        30.06R
BILOXI         PTCLDY    69  63  80 NE10      30.06R
PASCAGOULA     CLOUDY    69  64  84 N12       30.06R

$$

COASTAL OBSERVATIONS
LAKE AND NEARSHORE STATIONS

STATION/POSITION TIME  TEMP    WIND        PRES    WAVE
                       AIR SEA DIR/SP/G            HT/PER
                 (UTC) (F)     (DEG/KT/KT) (MB)    (FT/S)
PASCAGOULA       0300   70      10/ 10/ 13 1017.0
WAVELAND YACHT   0300   72      20/ 11/ 15 1017.2
GRAND ISLE       0300   71 78  120/  3/  7 1018.0
SOUTHWEST PASS   0300   74 78              1017.4
NEW CANAL        0300   72 72   30/ 15/ 20 1018.4
SHELL BEACH      0300   74 72   10/ 17/ 20 1017.3

OFFSHORE STATIONS

STATION/POSITION TIME  TEMP    WIND        PRES    WAVE
                       AIR SEA DIR/SP/G            HT/PER
                 (UTC) (F)     (DEG/KT/KT) (MB)    (FT/S)
64 S DAUPHIN ISL 0249   75 78  280/  4/  6 1017.6    2/ 6

$$




USA.gov is the U.S. government's official web portal to all federal, state and local government web resources and services.